South Lake Tahoe, CA

5:59 AM PDT on March 30, 2017 (GMT -0700)
Lake Tahoe

Weather History for KTVL - June, 2013

Change the Weather History Date:

Sunday, June 16, 2013

  Actual Average Record
Temperature  
Mean Temperature 55 °F 55 °F  
Max Temperature 76 °F 72 °F 88 °F (2000)
Min Temperature 33 °F 37 °F 24 °F (1994)
Degree Days  
Heating Degree Days 10 10  
Month to date heating degree days 80 192  
Since 1 June heating degree days 80 192  
Since 1 July heating degree days 6943 7614  
Cooling Degree Days 0 0  
Month to date cooling degree days 5 0  
Year to date cooling degree days 5 0  
Since 1 June cooling degree days 5 0  
Growing Degree Days 4 (Base 50)    
Moisture  
Dew Point 28 °F    
Average Humidity 45    
Maximum Humidity 75    
Minimum Humidity 14    
Precipitation  
Precipitation 0.00 in - 0.75 in (1969)
Month to date precipitation 0.07  
Year to date precipitation 4.82  
Sea Level Pressure  
Sea Level Pressure 30.09 in    
Wind  
Wind Speed 2 mph (ESE)    
Max Wind Speed 13 mph    
Max Gust Speed 21 mph    
Visibility 10 miles    
Events      
T = Trace of Precipitation, MM = Missing Value Source: NWS Daily Summary

Daily Weather History Graph

Daily Weather History Graph

Search for Another Location

Airport or City:

Trip Planner

Search our weather history database for the weather conditions in past years. The results will help you decide how hot, cold, wet, or windy it might be!

Date:

Astronomy

Jun. 16, 2013 Rise Set
Actual Time 5:34 AM PDT 8:27 PM PDT
Civil Twilight 5:02 AM PDT 8:59 PM PDT
Nautical Twilight 4:21 AM PDT 9:39 PM PDT
Astronomical Twilight 3:35 AM PDT 10:26 PM PDT
Moon 1:11 PM PDT (6/16) 12:38 AM PDT (6/16)
Length of Visible Light 15h 57m
Length of Day
14h 53m
Waxing Crescent, 51% of the Moon is Illuminated
Jun 16
Waxing Crescent
Jun 23
Full
Jun 29
Last Quarter
Jul 8
New
Jul 15
First Quarter

Hourly Weather History & Observations

Time (PDT) Temp. Windchill Dew Point Humidity Pressure Visibility Wind Dir Wind Speed Gust Speed Precip Events Conditions
12:53 AM 44.1 °F - 30.9 °F 60% 30.04 in 10.0 mi Calm Calm - N/A   Clear
1:53 AM 42.1 °F - 30.0 °F 62% 30.04 in 10.0 mi Calm Calm - N/A   Clear
2:53 AM 39.9 °F - 30.0 °F 68% 30.04 in 10.0 mi Calm Calm - N/A   Clear
3:53 AM 37.0 °F 33.3 °F 28.9 °F 73% 30.05 in 10.0 mi South 4.6 mph - N/A   Clear
4:53 AM 35.1 °F - 27.0 °F 72% 30.06 in 10.0 mi Calm Calm - N/A   Clear
5:53 AM 34.0 °F - 26.1 °F 73% 30.08 in 10.0 mi Calm Calm - N/A   Clear
6:53 AM 37.0 °F - 27.0 °F 67% 30.10 in 10.0 mi Calm Calm - N/A   Clear
7:53 AM 48.9 °F - 27.0 °F 43% 30.09 in 10.0 mi Calm Calm - N/A   Clear
8:53 AM 57.9 °F - 30.9 °F 36% 30.09 in 10.0 mi Calm Calm - N/A   Clear
9:53 AM 64.9 °F - 25.0 °F 22% 30.07 in 10.0 mi North 3.5 mph - N/A   Clear
10:53 AM 69.1 °F - 24.1 °F 18% 30.08 in 10.0 mi NNE 6.9 mph - N/A   Clear
11:53 AM 72.0 °F - 23.0 °F 16% 30.08 in 10.0 mi Variable 5.8 mph - N/A   Clear
12:53 PM 72.0 °F - 21.0 °F 15% 30.08 in 10.0 mi NNE 3.5 mph - N/A   Clear
1:53 PM 73.0 °F - 21.9 °F 15% 30.08 in 10.0 mi Variable 5.8 mph - N/A   Clear
2:53 PM 73.0 °F - 28.0 °F 19% 30.09 in 10.0 mi Variable 3.5 mph - N/A   Clear
3:53 PM 71.1 °F - 28.0 °F 20% 30.11 in 10.0 mi Variable 3.5 mph - N/A   Clear
4:53 PM 71.1 °F - 28.9 °F 21% 30.12 in 10.0 mi Variable 5.8 mph - N/A   Clear
5:53 PM 69.1 °F - 28.0 °F 22% 30.13 in 10.0 mi SSW 9.2 mph 16.1 mph N/A   Clear
6:53 PM 66.9 °F - 28.0 °F 23% 30.13 in 10.0 mi Variable 5.8 mph - N/A   Clear
7:53 PM 64.0 °F - 33.1 °F 31% 30.11 in 10.0 mi SSW 9.2 mph - N/A   Clear
8:53 PM 57.9 °F - 33.1 °F 39% 30.12 in 10.0 mi Calm Calm - N/A   Clear
9:53 PM 54.0 °F - 33.1 °F 45% 30.12 in 10.0 mi Calm Calm - N/A   Clear
10:53 PM 48.9 °F - 33.1 °F 54% 30.14 in 10.0 mi Calm Calm - N/A   Clear
11:53 PM 46.9 °F - 32.0 °F 56% 30.12 in 10.0 mi Calm Calm - N/A   Clear